IRIDIUM 105

Last updated on Tue Sep 22 2026 00:03:20 GMT+0000 (Coordinated Universal Time)

1 41921U 17003E 26264.29658818 .00000024 00000+0 13889-5 0 9994 2 41921 86.4017 16.6810 0002381 97.0483 263.0984 14.34217849508910
UTC large
Height (km)
Speed (km/s)
/
Latitude / Longitude
Inclination (degrees)
Orbital Period (minutes)
Azimuth
Elevation
Range (km)
Doppler Factor

Next 0 passes for location: London (51.5072 / 0.1276)

No passes found over London.
IRIDIUM 105